"Pseudo-MPEC" for P22oVTG

Created 2026 Aug 14 20:35:18 UT using Find_Orb

Click here for an explanation of pseudo-MPECs

 
 Astrometry: 
     P22oVTG 0C2026 07 27.49505323 36 28.503+13 49 01.32   ~8E1Z 22.08GVNEOCPF51
     P22oVTG 0C2026 07 27.50701623 36 29.252+13 49 10.48   ~8E1Z 21.66GVNEOCPF51
     P22oVTG 0C2026 07 27.51909123 36 29.976+13 49 19.92   ~8E1Z 21.57GVNEOCPF51
     P22oVTG*0C2026 08 07.42449323 46 55.014+15 51 57.86   ~87D5 21.56wXNEOCPF52
     P22oVTG 0C2026 08 07.43526923 46 55.501+15 52 04.06   ~87D5 21.64wXNEOCPF52
     P22oVTG 0C2026 08 07.44607823 46 55.987+15 52 10.55   ~87D5 21.61wXNEOCPF52
     P22oVTG 0C2026 08 07.56963223 47 01.442+15 53 22.47   ~87HK 20.89GVNEOCPF51
     P22oVTG 0C2026 08 07.57045323 47 01.490+15 53 22.93   ~87HK 21.38GVNEOCPF51
     P22oVTG KC2026 08 08.31351023 47 37.32 +16 00 22.6    ~8885 21.6 GVNEOCPH21
     P22oVTG KC2026 08 08.31910823 47 37.57 +16 00 25.9    ~8885 21.2 GVNEOCPH21
     P22oVTG KC2026 08 08.32479823 47 37.83 +16 00 28.6    ~8885 21.2 GVNEOCPH21
     P22oVTG 0C2026 08 08.46741223 47 44.754+16 01 51.91   ~8E1Z 21.39GVNEOCPF52
     P22oVTG 0C2026 08 08.47912123 47 45.261+16 01 58.45   ~8E1Z 21.36GVNEOCPF52
     P22oVTG 0C2026 08 08.50293323 47 46.274+16 02 11.98   ~8E1Z 21.54GVNEOCPF52
     P22oVTG 0C2026 08 11.41279623 49 55.859+16 27 46.97   ~8BBZ 21.55wXNEOCPF52
     P22oVTG 0C2026 08 11.42356123 49 56.273+16 27 52.48   ~8BBZ 21.75wXNEOCPF52
     P22oVTG 0C2026 08 11.44514923 49 57.095+16 28 03.51   ~8BBZ 21.47wXNEOCPF52
     P22oVTG 0C2026 08 14.43372823 51 54.270+16 51 06.55   ~8ECZ 21.30wXNEOCPF52
     P22oVTG 0C2026 08 14.44512423 51 54.637+16 51 11.41   ~8ECZ 21.36wXNEOCPF52
     P22oVTG 0C2026 08 14.46810023 51 55.364+16 51 21.42   ~8ECZ 21.37wXNEOCPF52

Station data:
(F51) Pan-STARRS 1, Haleakala  (N20.707234 W156.255910)  US/Hawaii.
   Observers J. Herman, T. Lowe, P. Minguez, A. Schultz, I. Smith. Measurers
   K. Chambers, T. de Boer, J. Fairlamb, H. Gao, M. Huber, C.-C. Lin, E.
   Magnier, Y. Ramanjooloo, R. Wainscoat, R. Weryk. 1.8-m Ritchey-Chrétien +
   CCD.
(F52) Pan-STARRS 2, Haleakala  (N20.707382 W156.255910)  US/Hawaii.
   Observers J. Herman, T. Lowe, P. Minguez, A. Schultz, I. Smith. Measurers
   K. Chambers, T. de Boer, J. Fairlamb, H. Gao, M. Huber, C.-C. Lin, E.
   Magnier, Y. Ramanjooloo, R. Wainscoat, R. Weryk. 1.8-m Ritchey-Chrétien +
   CCD.
(H21) Astronomical Research Observatory, Westfield  (N39.483054 W87.968270)
   US/Illinois.  Observer R. Holmes. Measurers S. Foglia, L. Buzzi, T.
   Linder, R. Holmes. 0.40-m f/5.32 astrograph + CCD.

Orbital elements:  P22oVTG
   Perihelion 2026 Aug 30.574232 +/- 0.427 TT = 13:46:53.6 (JD 2461283.074232)
Epoch 2026 Aug 14.0 TT = JDT 2461266.5   Earth MOID: 0.6087      AutoNEOCP
M 356.283996223 +/- 0.13            (J2000 ecliptic)
n   0.224203673 +/- 0.00209         Peri.  119.948965 +/- 0.36
a   2.683536867 +/- 0.0167          Node   228.104600 +/- 0.14
e   0.40483861 +/- 0.00299          Incl.    7.759760 +/- 0.0056
P   4.39604                H 19.85  G  0.15   U  8.6
q 1.597137515 +/- 0.0019    Q 3.769936219 +/- 0.0315
From 20 observations 2026 July 27-Aug. 14; mean residual 0".13
Residuals in arcseconds: 
260727 F51  .04-  .08-    260807 F51  .07+  .04-    260811 F52  .07+  .02-    
260727 F51  .17+  .09-    260808 H21  .01-  .38+    260811 F52  .08+  .00     
260727 F51  .06-  .12+    260808 H21  .09+  .52+    260811 F52  .10+  .05+    
260807 F52  .09-  .08+    260808 H21  .28+  .00     260814 F52  .05+  .08+    
260807 F52  .10-  .10-    260808 F52  .10-  .08+    260814 F52  .02+  .08-    
260807 F52  .11-  .00     260808 F52  .00   .02-    260814 F52  .13-  .12-    
260807 F51  .10-  .03-    260808 F52  .03+  .07+    

Ephemerides (geocentric):
Date (UTC) HH   RA             Dec           delta  r     elong  mag " sig PA
---- --------  ------------   ------------  ------ ------ -----  --- --------
2026 08 14 21  23 52 09.765   +16 54 14.72  .72259 1.6029 134.2 21.4 .095  96
2026 08 14 22  23 52 11.254   +16 54 32.13  .72238 1.6029 134.3 21.4 .097  95
2026 08 14 23  23 52 12.740   +16 54 49.50  .72217 1.6028 134.3 21.4 .099  94
2026 08 15 00  23 52 14.222   +16 55 06.83  .72196 1.6028 134.3 21.4 .101  93
2026 08 15 01  23 52 15.702   +16 55 24.11  .72174 1.6028 134.4 21.4 .103  93
2026 08 15 02  23 52 17.179   +16 55 41.36  .72153 1.6028 134.4 21.4 .105  92
2026 08 15 03  23 52 18.653   +16 55 58.56  .72132 1.6027 134.4 21.4 .108  91
2026 08 15 04  23 52 20.123   +16 56 15.73  .72111 1.6027 134.4 21.4 .110  90
2026 08 15 05  23 52 21.591   +16 56 32.85  .72089 1.6027 134.5 21.4 .112  90
2026 08 15 06  23 52 23.055   +16 56 49.93  .72068 1.6026 134.5 21.4 .115  89
2026 08 15 07  23 52 24.516   +16 57 06.97  .72047 1.6026 134.5 21.4 .117  88
2026 08 15 08  23 52 25.974   +16 57 23.97  .72026 1.6026 134.6 21.4 .120  88
2026 08 15 09  23 52 27.429   +16 57 40.93  .72005 1.6025 134.6 21.4 .122  87
2026 08 15 10  23 52 28.881   +16 57 57.85  .71984 1.6025 134.6 21.4 .125  87
2026 08 15 11  23 52 30.330   +16 58 14.72  .71963 1.6025 134.6 21.4 .127  86
2026 08 15 12  23 52 31.776   +16 58 31.55  .71942 1.6025 134.7 21.4 .130  85
2026 08 15 13  23 52 33.219   +16 58 48.35  .71921 1.6024 134.7 21.4 .133  85
2026 08 15 14  23 52 34.659   +16 59 05.10  .71900 1.6024 134.7 21.4 .135  84
2026 08 15 15  23 52 36.095   +16 59 21.81  .71879 1.6024 134.8 21.4 .138  84
2026 08 15 16  23 52 37.529   +16 59 38.48  .71858 1.6023 134.8 21.4 .141  83
2026 08 15 17  23 52 38.959   +16 59 55.10  .71837 1.6023 134.8 21.4 .144  83
2026 08 15 18  23 52 40.387   +17 00 11.69  .71816 1.6023 134.9 21.4 .147  82
2026 08 15 19  23 52 41.811   +17 00 28.23  .71795 1.6023 134.9 21.4 .150  82
2026 08 15 20  23 52 43.232   +17 00 44.74  .71774 1.6022 134.9 21.4 .153  81
2026 08 15 21  23 52 44.650   +17 01 01.20  .71753 1.6022 134.9 21.4 .156  81
2026 08 15 22  23 52 46.065   +17 01 17.61  .71732 1.6022 135.0 21.4 .159  80
2026 08 15 23  23 52 47.477   +17 01 33.99  .71711 1.6021 135.0 21.4 .162  80
2026 08 16 00  23 52 48.886   +17 01 50.33  .71691 1.6021 135.0 21.4 .165  79
2026 08 16 01  23 52 50.291   +17 02 06.62  .71670 1.6021 135.1 21.4 .168  79
2026 08 16 02  23 52 51.694   +17 02 22.87  .71649 1.6021 135.1 21.4 .171  79
2026 08 16 03  23 52 53.094   +17 02 39.08  .71628 1.6020 135.1 21.4 .175  78
2026 08 16 04  23 52 54.490   +17 02 55.25  .71608 1.6020 135.1 21.3 .178  78
2026 08 16 05  23 52 55.884   +17 03 11.38  .71587 1.6020 135.2 21.3 .181  77
2026 08 16 06  23 52 57.274   +17 03 27.46  .71566 1.6019 135.2 21.3 .185  77
2026 08 16 07  23 52 58.661   +17 03 43.51  .71545 1.6019 135.2 21.3 .188  76
2026 08 16 08  23 53 00.045   +17 03 59.51  .71525 1.6019 135.3 21.3 .192  76
2026 08 16 09  23 53 01.426   +17 04 15.47  .71504 1.6019 135.3 21.3 .195  76
2026 08 16 10  23 53 02.804   +17 04 31.38  .71484 1.6018 135.3 21.3 .199  75
2026 08 16 11  23 53 04.179   +17 04 47.26  .71463 1.6018 135.4 21.3 .202  75
2026 08 16 12  23 53 05.551   +17 05 03.09  .71442 1.6018 135.4 21.3 .206  75
2026 08 16 13  23 53 06.920   +17 05 18.88  .71422 1.6018 135.4 21.3 .210  74
2026 08 16 14  23 53 08.285   +17 05 34.63  .71401 1.6017 135.4 21.3 .213  74
2026 08 16 15  23 53 09.648   +17 05 50.34  .71381 1.6017 135.5 21.3 .217  74
2026 08 16 16  23 53 11.007   +17 06 06.00  .71360 1.6017 135.5 21.3 .221  73
2026 08 16 17  23 53 12.363   +17 06 21.62  .71340 1.6016 135.5 21.3 .225  73
2026 08 16 18  23 53 13.717   +17 06 37.20  .71319 1.6016 135.6 21.3 .229  73
2026 08 16 19  23 53 15.067   +17 06 52.74  .71299 1.6016 135.6 21.3 .233  72
2026 08 16 20  23 53 16.414   +17 07 08.23  .71278 1.6016 135.6 21.3 .237  72